Location: Bothwell
(41.7170°N, 112.2589°W)
Time: 01:03:06
(UTC+00:00)

Explorer 11/Cluster Stage 4 - Visible Passes

Search period start: 14 May 2026 00:00
Search period end: 24 May 2026 00:00
Orbit: 463 x 1174 km, 28.8° (Epoch: 13 May)

Date Brightness Start Highest point End Pass type
(mag) Time Alt. Az. Time Alt. Az. Time Alt. Az.
16 May 8.7 04:11:09 10° SSW 04:14:20 15° SSE 04:14:20 15° SSE visible
17 May 8.6 03:45:53 10° SSW 03:50:00 16° SSE 03:52:01 14° SE visible
17 May 8.9 05:31:36 10° SW 05:33:17 15° SW 05:33:17 15° SW visible
18 May 8.7 03:20:41 10° SSW 03:25:05 16° SSE 03:29:17 10° SE visible
18 May 8.3 05:06:26 10° SW 05:10:45 23° SSW 05:10:45 23° SSW visible
19 May 8.1 04:41:18 10° SW 04:47:21 26° S 04:48:00 26° SSE visible
19 May 9.2 06:28:52 10° WSW 06:29:14 11° WSW 06:29:14 11° WSW visible
20 May 8.2 04:16:11 10° SW 04:22:24 27° S 04:25:03 22° SE visible
20 May 8.8 06:03:43 10° WSW 06:06:16 19° SW 06:06:16 19° SW visible
21 May 8.2 03:51:06 10° SW 03:57:26 28° S 04:01:56 16° SE visible
21 May 8.3 05:38:35 10° WSW 05:43:08 25° SSW 05:43:08 25° SSW visible
22 May 8.3 03:26:04 10° SW 03:32:27 28° S 03:38:37 10° ESE visible
22 May 8.1 05:13:29 10° WSW 05:19:48 28° S 05:19:52 28° S visible
23 May 8.1 04:48:25 10° WSW 04:54:49 29° S 04:56:29 26° SSE visible
23 May 9.3 06:37:14 10° WSW 06:37:41 11° WSW 06:37:41 11° WSW visible
